Regional Weather Roundup
Issued by NWS Sioux Falls, SD

Home | Current Version | Previous Version | Graphics & Text | Print | Product List | Glossary On
Versions: 1 2 3 4 5 6 7 8 9 10 11 12 13 14 15 16 17 18 19 20 21 22 23 24 25 26 27 28 29 30 31 32 33 34 35 36 37 38 39 40 41 42 43 44 45 46 47 48 49 50
000
ASUS43 KFSD 250802
RWRFSD

WEATHER ROUNDUP FOR SE SOUTH DAKOTA/SW MINNESOTA/NW IOWA
NATIONAL WEATHER SERVICE SIOUX FALLS SD
300 AM CDT SUN JUN 25 2017

NOTE: "FAIR" INDICATES FEW OR NO CLOUDS BELOW 12,000 FEET WITH NO
SIGNIFICANT WEATHER AND OR OBSTRUCTIONS TO VISIBILITY.


SDZ038>040-050-052>070-250900-
SOUTHEAST SOUTH DAKOTA

CITY           SKY/WX    TMP DP  RH WIND       PRES   REMARKS
BROOKINGS      PTCLDY    51  43  74 N8        30.22R
CHAMBERLAIN    CLEAR     47  44  87 W5        30.31R
HURON          CLEAR     45  43  93 NW7       30.26S
MADISON        FAIR      48  48 100 NW9       30.23S
MITCHELL       NOT AVBL
SIOUX FALLS    CLEAR     49  45  86 W7        30.22S
WINNER         FAIR      45  38  76 W6        30.33S
YANKTON        CLEAR     50  43  77 W8        30.27S
$$

MNZ071-072-080-081-089-090-097-098-250900-
SOUTHWEST MINNESOTA

CITY           SKY/WX    TMP DP  RH WIND       PRES   REMARKS
FAIRMONT       PTCLDY    52  45  77 NW10      30.15F
JACKSON        CLEAR     52  45  76 NW10      30.18S
LUVERNE        CLEAR     48  41  76 W8        30.22R
MARSHALL       CLEAR     53  43  68 NW16      30.18S
MONTEVIDEO     CLOUDY    52  45  76 N12G20    30.18R
PIPESTONE      CLEAR     54  45  71 NW7       30.20S
REDWOOD FALLS  CLOUDY    55  44  66 NW14G21   30.15S
TRACY          PTCLDY    54  47  77 NW12      30.18S
WINDOM         PTCLDY    54  45  71 W13       30.17S
WORTHINGTON    CLEAR     50  45  83 W9        30.20S
$$

IAZ001>003-012>014-020>022-031-032-NEZ013-014-SDZ071-250900-
NORTHWEST IOWA

CITY           SKY/WX    TMP DP  RH WIND       PRES   REMARKS
CHEROKEE       PTCLDY    48  44  87 CALM      30.22R
DENISON        PTCLDY    50  43  76 CALM      30.24S
ESTHERVILLE    CLEAR     47  46  97 W9        30.16F
LE MARS        CLEAR     48  43  81 W6        30.24S
ORANGE CITY    CLEAR     46  43  87 W3        30.23R
SHELDON        CLEAR     48  45  87 W6        30.20R
SIOUX CITY     CLEAR     49  42  77 W5        30.25S
SPENCER        CLEAR     46  43  89 W8        30.19S
STORM LAKE     CLEAR     50  43  76 W10       30.21S
$$

ABBREVIATIONS USED IN REMARKS
   TC - TEMPERATURE IN CELSIUS
  WCI - WIND CHILL INDEX
   HX - HEAT INDEX
  VSB - VISIBILITY





USA.gov is the U.S. government's official web portal to all federal, state and local government web resources and services.